This demonstration page uses our WeatherBlox Daily Observations layout. Learn more.

Left ArrowRight Arrow

39.01783, -85.05884

Hourly Observations for December 26, 2016

Temp ( °F °C ) Dew Point ( °F °C ) Humidity (%) Winds ( mph kmh ) Pressure ( in mb ) Visibility ( mi km ) Precip ( " mm )
12:01 am 00:01 Mostly Cloudy with Fog 50 10 50 10 100 100 SSE 10 17 30.30 1026 1 2 N/A
12:52 am 00:52 Cloudy with Fog 51 10.6 51 10.6 100 100 SSE 10 17 30.25 1024 1 2 N/A
1:35 am 01:35 Cloudy with Mist and Fog 52 11.1 52 11.1 100 100 SE 8 13 30.27 1025 3 5 N/A
1:52 am 01:52 Cloudy with Mist and Fog 52 11.1 52 11.1 100 100 SSE 9 15 30.24 1024 5 8 N/A
2:52 am 02:52 Cloudy 53 11.7 53 11.7 100 100 SSE 13 20 30.24 1024 7 11 N/A
2:59 am 02:59 Cloudy 53 11.7 53 11.7 100 100 SSE 12 19 30.24 1024 7 11 N/A
3:52 am 03:52 Mostly Cloudy 54 12.2 53 11.7 97 97 S 12 19 30.22 1024 8 13 N/A
4:52 am 04:52 Cloudy 55 12.8 53 11.7 93 93 S 12 19 30.20 1023 10 16 N/A
5:52 am 05:52 Cloudy 58 14.4 55 12.8 90 90 S 14 22 30.19 1023 10 16 N/A
6:52 am 06:52 Cloudy 59 15 55 12.8 87 87 S 13 20 30.19 1022 10 16 N/A
7:52 am 07:52 Cloudy 60 15.6 55 12.8 84 84 S 14 22 30.19 1022 10 16 N/A
8:36 am 08:36 Cloudy with Heavy Rain 59 15 56 13.3 90 90 S 17 28 30.21 1023 2 3 0.01 0.25
8:52 am 08:52 Cloudy with Rain 59 15 57 13.9 93 93 S 16 26 30.19 1022 2 3 0.13 3.30
9:09 am 09:09 Cloudy with Mist and Fog 59 15 57 13.9 93 93 S 15 24 30.21 1023 10 16 0.01 0.25
9:52 am 09:52 Cloudy with Drizzle 59 15 57 13.9 93 93 S 15 24 30.19 1022 6 10 0.01 0.25
10:52 am 10:52 Mostly Cloudy 62 16.7 58 14.4 86 86 S 13 20 30.17 1022 10 16 N/A
11:52 am 11:52 Partly Cloudy 66 18.9 58 14.4 75 75 S 20 31 30.11 1020 10 16 N/A
12:52 pm 12:52 Mostly Cloudy 69 20.6 58 14.4 68 68 SSW 24 39 30.09 1019 10 16 N/A
1:52 pm 13:52 Mostly Cloudy 70 21.1 59 15 68 68 SSW 16 26 30.06 1018 10 16 N/A
2:52 pm 14:52 Mostly Cloudy 70 21.1 59 15 68 68 SSW 16 26 30.03 1017 10 16 N/A
3:52 pm 15:52 Mostly Cloudy 71 21.7 59 15 66 66 SSW 17 28 30.01 1016 10 16 N/A
4:52 pm 16:52 Cloudy with Light Rain 67 19.4 60 15.6 79 79 SSW 14 22 30.04 1017 7 11 0.01 0.25
5:52 pm 17:52 Cloudy with Heavy Rain 63 17.2 62 16.7 97 97 W 12 19 30.05 1018 3 4 0.09 2.29
5:56 pm 17:56 Cloudy with Heavy Rain 63 17 63 17 100 100 SW 9 15 30.06 1018 1 2 N/A
6:03 pm 18:03 Cloudy with Light Rain 63 17 63 17 100 100 SW 9 15 30.06 1018 3 5 N/A
6:52 pm 18:52 Cloudy with Light Rain 63 17.2 62 16.7 97 97 SW 8 13 30.02 1017 5 8 0.15 3.81
7:52 pm 19:52 Cloudy with Light Rain 63 17.2 61 16.1 93 93 S 12 19 29.98 1015 6 10 0.16 4.06
8:52 pm 20:52 Cloudy with Haze 65 18.3 60 15.6 84 84 SW 18 30 29.98 1015 6 10 N/A
9:25 pm 21:25 Cloudy with Heavy Rain 62 16.7 61 16.1 96 96 W 16 26 30.06 1018 2 3 0.04 1.02
9:52 pm 21:52 Cloudy with Light Rain 57 13.9 56 13.3 96 96 W 16 26 30.04 1017 5 8 0.19 4.83
10:21 pm 22:21 Cloudy with Light Rain 56 13.3 55 12.8 97 97 WSW 9 15 30.06 1018 5 8 0.02 0.51
10:52 pm 22:52 Cloudy 53 11.7 47 8.3 80 80 SW 9 15 30.04 1017 10 16 0.02 0.51
11:31 pm 23:31 Cloudy 53 11.7 47 8.3 80 80 SW 8 13 30.06 1018 10 16 N/A
11:52 pm 23:52 Cloudy 53 11.7 47 8.3 80 80 WSW 7 11 30.04 1017 10 16 N/A

Powered by AerisWeather